NIMBUS 2 DEB, 26816

Orbit data source: Space-Track

NIMBUS 2 DEB, 26816 is space debris in SSO originally from a launch on Sun, 15 May 1966 UTC launched from the Air Force Western Test Range (AFWTR). Debris objects in space refer to the collection of defunct objects orbiting the Earth. Examples of debris include non-operational satellites, rocket bodies, and fragments generated from explosions, collisions, or faulty payload assembly.

Loading next visibility...
Identifier
26816, 1966-040L
Orbit
SSO
Country
Flag of USUS
Related business
Manufacturer
Unknown
Mission
Spacecraft
Bus & Motor
Unknown
Mass
Unknown
Launch date (UTC)
1966-05-15 (60 years ago)
Launch vehicle
Unknown
Launch site
Air Force Western Test Range (AFWTR)
Object type
Payload
Rocket body
Debris
Shape & HBR
Unknown shape, 0.1 m
Radar Cross Section
Medium (>0.1 m² and <1 m²)

Expand to show TLE details & history
Last TLE update: 2 days ago

TLE from 2 days ago
0 NIMBUS 2 DEB
1 26816U 66040L   26261.36158485  .00002142  00000-0  29698-2 0  9991
2 26816 100.3330 212.7992 0053407 264.3018 250.1312 13.58729224256561
Epoch: 2026-09-18T08:40Z
TLE epoch observation values (Epoch: 2026-09-18T08:40:40.931Z)
Latitude
25.71865°
Longitude
-89.64467°
Altitude
1,056.962 km
Speed
7.319 km/s
True Right ascension
02h 31m 14s
True Declination
25° 35' 23"
Sunlit
Object was in full shadow at epoch
Visualization orbit readout
Latitude
Unknown
Longitude
Unknown
Altitude
Unknown
Speed
Unknown
Apparent Right ascension
Unknown
Apparent Declination
Unknown
Sunlit
N/A
Visualization observer readout
Local Sidereal Time
18:23:26
Azimuth
Unknown
Elevation
Unknown
Doppler factor
Unknown
Orbital elements
Apogee altitude
1,077.243 km
Perigee altitude
998.032 km
Semi-major axis
7,415.774 km
Eccentricity
0.00534
Inclination
100.333°
RAAN
212.7992°
Arg. of periapsis
264.3018°
True anomaly
249.55694°
Mean anomaly
250.1312°
Eccentric anomaly
249.84394°
Mean motion
3.39867 °/min
Orbital period
105.92 mins
BSTAR
0.0029698
Loading maneuver chart data...
Computing Atmospheric mass density...
Loading historical data...
Loading historical data...
Loading historical data...
Loading historical data...
Loading historical data...
Loading historical data...
Loading historical data...

Documentation

Showing up to 5 results
|